DFL160 ESGG-ZZZZ

Flight info

Callsign DFL160
Flight time N/A
Altitude
Route
Aircraft H60

Departure

Time 2026-04-30 22:19
Airport Göteborg Landvetter Airport (ESGG)

Arrival

Time N/A
Airport ZZZZ
Time Latitude Longitude Altitude Speed Heading
2026-04-30 22:06 57.67478 12.29770 511 ft 0 kts 309°
2026-04-30 22:13 57.67476 12.29765 514 ft 3 kts 280°
2026-04-30 22:13 57.67468 12.29747 513 ft 6 kts 273°
2026-04-30 22:13 57.67413 12.29745 520 ft 17 kts 200°
2026-04-30 22:13 57.67387 12.29578 521 ft 12 kts 299°
2026-04-30 22:14 57.67422 12.29437 521 ft 14 kts 290°
2026-04-30 22:14 57.67454 12.29311 519 ft 5 kts 281°
2026-04-30 22:14 57.67460 12.29245 510 ft 0 kts 268°
2026-04-30 22:16 57.67460 12.29243 511 ft 2 kts 268°
2026-04-30 22:17 57.67024 12.28656 514 ft 34 kts 201°
2026-04-30 22:17 57.66886 12.28534 509 ft 2 kts 202°
2026-04-30 22:17 57.66560 12.28213 508 ft 46 kts 205°
2026-04-30 22:18 57.66195 12.27858 533 ft 78 kts 207°
2026-04-30 22:18 57.66319 12.25367 590 ft 130 kts 282°
2026-04-30 22:19 57.66686 12.22388 1294 ft 96 kts 282°
2026-04-30 22:19 57.66975 12.21351 1850 ft 77 kts 295°
2026-04-30 22:19 57.67303 12.19123 1977 ft 127 kts 277°
2026-04-30 22:20 57.67413 12.17379 1487 ft 133 kts 274°
2026-04-30 22:20 57.67499 12.13954 1319 ft 124 kts 270°
2026-04-30 22:20 57.67499 12.12335 1047 ft 124 kts 269°
2026-04-30 22:21 57.67572 12.10752 895 ft 120 kts 276°
2026-04-30 22:21 57.67722 12.09217 701 ft 119 kts 277°
2026-04-30 22:21 57.67801 12.07772 688 ft 108 kts 271°
2026-04-30 22:21 57.67787 12.06377 734 ft 109 kts 257°
2026-04-30 22:22 57.67578 12.04900 501 ft 127 kts 261°
2026-04-30 22:22 57.67580 12.03256 419 ft 129 kts 261°
2026-04-30 22:22 57.68056 12.02080 530 ft 116 kts 313°
2026-04-30 22:22 57.68707 12.01178 412 ft 124 kts 343°
2026-04-30 22:23 57.69557 12.01104 333 ft 115 kts
2026-04-30 22:23 57.70187 12.01765 385 ft 106 kts 34°
2026-04-30 22:23 57.70820 12.02576 346 ft 105 kts 37°
2026-04-30 22:23 57.71307 12.03370 518 ft 91 kts 32°
2026-04-30 22:24 57.71726 12.04041 357 ft 53 kts 30°
2026-04-30 22:24 57.71904 12.04311 350 ft 13 kts 28°
2026-04-30 22:24 57.72001 12.04485 350 ft 36 kts 72°
2026-04-30 22:24 57.72047 12.04673 284 ft 13 kts 60°
2026-04-30 22:25 57.72087 12.04753 168 ft 6 kts 54°
2026-04-30 22:25 57.72099 12.04781 140 ft 3 kts
2026-04-30 22:25 57.72100 12.04782 140 ft 0 kts
2026-04-30 22:26 57.72088 12.04711 194 ft 19 kts 232°
2026-04-30 22:26 57.71980 12.04531 337 ft 26 kts 41°
2026-04-30 22:27 57.72288 12.05232 278 ft 99 kts 56°
2026-04-30 22:27 57.72874 12.06088 295 ft 126 kts 43°
2026-04-30 22:27 57.73532 12.09053 237 ft 127 kts 70°
2026-04-30 22:28 57.73935 12.12126 165 ft 115 kts 79°
2026-04-30 22:28 57.74038 12.13671 139 ft 117 kts 74°
2026-04-30 22:29 57.73740 12.17473 730 ft 95 kts 123°
2026-04-30 22:29 57.73069 12.18107 704 ft 118 kts 156°
2026-04-30 22:30 57.69895 12.20403 481 ft 119 kts 156°
2026-04-30 22:31 57.68951 12.21068 255 ft 10 kts 140°
2026-04-30 22:32 57.68944 12.21091 192 ft 0 kts 137°
2026-04-30 22:36 57.68944 12.21088 217 ft 1 kts 135°
2026-04-30 22:37 57.68740 12.24026 571 ft 133 kts 82°
2026-04-30 22:37 57.68833 12.25845 444 ft 141 kts 84°
2026-04-30 22:37 57.68392 12.29008 675 ft 124 kts 122°
2026-04-30 22:38 57.66725 12.28358 559 ft 136 kts 202°
2026-04-30 22:38 57.65103 12.26685 646 ft 120 kts 235°
2026-04-30 22:39 57.65454 12.25716 580 ft 104 kts 345°
2026-04-30 22:39 57.67635 12.27169 690 ft 110 kts 21°
2026-04-30 22:40 57.67644 12.29174 545 ft 53 kts 214°
2026-04-30 22:41 57.67450 12.29215 510 ft 10 kts 80°
2026-04-30 22:41 57.67452 12.29249 511 ft 0 kts 84°
2026-04-30 22:42 57.67368 12.29668 511 ft 11 kts 79°
2026-04-30 22:43 57.67456 12.29799 511 ft 7 kts 323°